[[{"header":{"parameterUnit":"m.s-1","parameterCategory":1,"la1":30.2991,"la2":30.254,"lo1":-89.0895,"lo2":-89.0444,"dy":0.0017,"dx":0.0017,"nx":28,"ny":28,"refTime":"2025-09-04T09:00:00:Z","depth":0,"parameterNumber":2,"parameterNumberName":"U-component_of_WINDS"},"data":[0,0,0,0,0,0,0,0,0,0,0,0,0,0,0,0,0,0,0,0,0,0,0,0,0,0,0,0,0,0,0,0,0,0,0,0,0,0,0,0,0,0,0,0,0,0,0,0,0,0,0,0,0,0,0,0,0,0,-1.3755,-1.3755,0,-1.3685,-1.3684,-1.3683,-1.3631,-1.363,-1.363,-1.3629,-1.3556,-1.3554,-1.3553,0,0,0,0,0,0,0,0,0,0,0,0,0,-1.3846,-1.3845,-1.3755,-1.3755,-1.3754,-1.3685,-1.3684,-1.3683,-1.3631,-1.363,-1.363,-1.3629,-1.3556,-1.3555,-1.3553,0,0,0,0,0,0,0,0,0,0,0,0,0,-1.3794,-1.3844,-1.3756,-1.372,-1.3716,-1.3685,-1.3684,-1.3683,-1.3631,-1.363,-1.363,-1.3629,-1.3557,-1.3555,-1.3552,-1.3552,0,0,-1.3545,-1.3544,0,0,0,0,0,0,0,0,-1.3797,-1.3791,-1.3726,-1.3722,-1.3717,-1.3666,-1.3689,-1.3639,-1.3631,-1.3663,-1.3629,-1.3629,-1.3593,-1.3588,-1.3576,-1.3548,-1.3545,-1.3545,-1.3544,-1.3543,-1.3542,0,0,0,0,0,0,0,-1.3801,-1.3794,-1.3727,-1.3725,-1.372,-1.3707,-1.3699,-1.3679,-1.3633,-1.366,-1.3656,-1.3649,-1.3591,-1.3578,-1.3574,-1.3544,-1.3545,-1.3543,-1.3542,-1.3541,-1.3514,-1.3514,0,0,0,0,0,0,-1.381,-1.3797,-1.373,-1.3725,-1.3757,-1.3706,-1.3697,-1.3683,-1.3633,-1.3624,-1.3649,-1.3647,-1.3582,-1.3576,-1.3571,-1.3567,-1.3543,-1.3541,-1.3539,-1.3513,-1.3514,-1.3514,0,0,0,0,0,0,-1.3812,-1.3805,-1.3732,-1.376,-1.375,-1.3705,-1.369,-1.3682,-1.367,-1.3624,-1.3616,-1.3645,-1.3582,-1.3574,-1.3557,-1.3564,-1.354,-1.3538,-1.3512,-1.3513,-1.3514,-1.356,0,0,0,0,0,0,-1.3815,-1.3806,-1.3805,-1.376,-1.3749,-1.372,-1.369,-1.3681,-1.3666,-1.3661,-1.3618,-1.361,-1.3581,-1.3561,-1.3555,-1.356,-1.3536,-1.3511,-1.3513,-1.3514,-1.3557,-1.3562,-1.3566,0,0,0,0,0,-1.3818,-1.382,-1.3805,-1.3797,-1.3747,-1.372,-1.3714,-1.368,-1.3667,-1.3665,-1.3637,-1.3612,-1.3565,-1.356,-1.3552,-1.3557,-1.3511,-1.3512,-1.3514,-1.3555,-1.3561,-1.3566,0,0,0,0,0,0,-1.3865,-1.3813,-1.3796,-1.3783,-1.3757,-1.3712,-1.3709,-1.3687,-1.3663,-1.366,-1.3618,-1.3609,-1.3597,-1.3575,-1.3571,-1.3554,-1.3535,-1.3535,-1.3569,-1.3574,-1.3578,-1.3583,-1.3534,0,0,0,0,0,-1.3874,-1.3858,-1.3813,-1.3806,-1.3794,-1.3754,-1.3741,-1.3718,-1.3688,-1.3677,-1.3646,-1.3619,-1.3598,-1.3585,-1.3563,-1.3554,-1.3545,-1.3554,-1.3559,-1.3563,-1.3563,-1.3558,-1.3562,-1.3519,-1.3519,-1.3519,0,0,-1.3892,-1.3862,-1.3854,-1.3815,-1.3791,-1.3775,-1.3745,-1.3728,-1.3716,-1.3674,-1.3656,-1.3634,-1.36,-1.3588,-1.3581,-1.357,-1.3573,-1.3564,-1.3568,-1.3566,-1.356,-1.3564,-1.3567,-1.352,-1.352,-1.352,0,0,-1.3917,-1.3892,-1.3884,-1.3862,-1.3827,-1.3801,-1.3799,-1.3758,-1.3741,-1.3723,-1.3692,-1.3676,-1.3641,-1.3619,-1.3603,-1.3621,-1.3598,-1.3615,-1.3638,-1.3633,-1.3637,-1.3639,-1.3646,-1.3649,-1.3616,-1.3616,-1.3616,0,-1.3943,-1.3918,-1.3882,-1.3868,-1.3852,-1.3815,-1.3806,-1.3786,-1.3746,-1.3736,-1.3725,-1.368,-1.3655,-1.3637,-1.3642,-1.363,-1.3627,-1.3619,-1.3639,-1.3642,-1.3644,-1.365,-1.3652,-1.3618,-1.3618,-1.3618,-1.3618,0,-1.3952,-1.3935,-1.3933,-1.3896,-1.388,-1.3869,-1.3832,-1.382,-1.3798,-1.3774,-1.3756,-1.3725,-1.3697,-1.3691,-1.3669,-1.3671,-1.3665,-1.3647,-1.3626,-1.3651,-1.3656,-1.3658,-1.3622,-1.3621,-1.362,-1.362,0,0,-1.4003,-1.3948,-1.3947,-1.3931,-1.3891,-1.3877,-1.3865,-1.3838,-1.3828,-1.3803,-1.3791,-1.3763,-1.3747,-1.3729,-1.3705,-1.3701,-1.3718,-1.3683,-1.3682,-1.3691,-1.3719,-1.3732,-1.3735,-1.3703,-1.3703,-1.3703,-1.3721,0,-1.4021,-1.3997,-1.3965,-1.3952,-1.3936,-1.3901,-1.389,-1.3865,-1.3842,-1.3826,-1.38,-1.3781,-1.3761,-1.375,-1.3744,-1.3717,-1.3723,-1.3715,-1.3692,-1.3692,-1.3701,-1.3738,-1.3752,-1.377,-1.3723,-1.3723,-1.3724,0,-1.4038,-1.4015,-1.4,-1.3963,-1.3955,-1.3946,-1.392,-1.3904,-1.3875,-1.3859,-1.384,-1.3814,-1.38,-1.3782,-1.3762,-1.3758,-1.3747,-1.3732,-1.3732,-1.3728,-1.3709,-1.3735,-1.3775,-1.3778,-1.3726,-1.3726,-1.3726,0,-1.4077,-1.4042,-1.4029,-1.4016,-1.3972,-1.3966,-1.3948,-1.3918,-1.3904,-1.3881,-1.3872,-1.3847,-1.3834,-1.3816,-1.3784,-1.3774,-1.3768,-1.3748,-1.3755,-1.3755,-1.3754,-1.3754,-1.3793,-1.3748,-1.3748,-1.3748,-1.3748,0,-1.41,-1.4092,-1.4046,-1.4038,-1.4028,-1.3993,-1.3985,-1.3963,-1.3938,-1.3925,-1.3893,-1.3882,-1.3842,-1.3826,-1.3801,-1.3789,-1.3783,-1.377,-1.3763,-1.3772,-1.3774,-1.3764,-1.3762,-1.3748,-1.3748,-1.3748,-1.3748,0,-1.4141,-1.4109,-1.4093,-1.4053,-1.4043,-1.4038,-1.4004,-1.3995,-1.3971,-1.3956,-1.395,-1.3912,-1.3892,-1.386,-1.383,-1.3814,-1.3806,-1.3795,-1.3816,-1.3812,-1.3821,-1.382,-1.3854,-1.3857,-1.381,-1.3811,-1.3811,0,-1.4158,-1.4151,-1.4111,-1.41,-1.4083,-1.4067,-1.4053,-1.4018,-1.4005,-1.3972,-1.3968,-1.3946,-1.3926,-1.3896,-1.3866,-1.3843,-1.3831,-1.3845,-1.3828,-1.3838,-1.3832,-1.3832,-1.3832,-1.3849,-1.3849,-1.385,-1.385,0,-1.4191,-1.4176,-1.4157,-1.4133,-1.4118,-1.4097,-1.4075,-1.4068,-1.4029,-1.4016,-1.3995,-1.398,-1.3951,-1.3929,-1.3903,-1.3884,-1.3861,-1.3856,-1.3857,-1.3866,-1.3878,-1.3872,-1.3826,-1.3855,-1.3855,-1.3854,-1.3854,-1.3854,-1.422,-1.4213,-1.4184,-1.4164,-1.4144,-1.4125,-1.4115,-1.409,-1.4073,-1.4046,-1.4027,-1.4008,-1.398,-1.3943,-1.3925,-1.391,-1.39,-1.39,-1.39,-1.3901,-1.3905,-1.3881,-1.3905,-1.3905,-1.3905,-1.3905,-1.3905,0,-1.4251,-1.4232,-1.4214,-1.4184,-1.4169,-1.415,-1.4125,-1.4113,-1.4097,-1.4074,-1.4055,-1.4032,-1.4012,-1.3981,-1.3958,-1.3952,-1.3941,-1.3948,-1.3947,-1.3944,-1.3915,-1.3917,-1.3957,-1.3957,-1.3957,-1.3957,-1.3957,-1.3957,-1.4266,-1.4253,-1.4235,-1.4213,-1.4193,-1.4174,-1.4162,-1.4144,-1.4125,-1.4101,-1.4084,-1.4064,-1.4038,-1.4013,-1.3994,-1.3985,-1.3978,-1.3988,-1.3976,-1.395,-1.3945,-1.3941,-1.3942,-1.3987,-1.3987,-1.4006,-1.4006,-1.4006]},{"header":{"parameterUnit":"m.s-1","parameterCategory":1,"la1":30.2991,"la2":30.254,"lo1":-89.0895,"lo2":-89.0444,"dy":0.0017,"dx":0.0017,"nx":28,"ny":28,"refTime":"2025-09-04T09:00:00:Z","depth":0,"parameterNumber":3,"parameterNumberName":"V-component_of_WINDS"},"data":[0,0,0,0,0,0,0,0,0,0,0,0,0,0,0,0,0,0,0,0,0,0,0,0,0,0,0,0,0,0,0,0,0,0,0,0,0,0,0,0,0,0,0,0,0,0,0,0,0,0,0,0,0,0,0,0,0,0,3.1542,3.1542,0,3.1501,3.1501,3.15,3.1528,3.1529,3.153,3.1532,3.1482,3.148,3.1477,0,0,0,0,0,0,0,0,0,0,0,0,0,3.1638,3.1636,3.1542,3.1542,3.1541,3.1501,3.1501,3.15,3.1528,3.1529,3.1531,3.1532,3.1483,3.148,3.1477,0,0,0,0,0,0,0,0,0,0,0,0,0,3.1597,3.1636,3.1542,3.155,3.1551,3.1501,3.1501,3.15,3.1527,3.1529,3.1531,3.1533,3.1484,3.148,3.1477,3.1415,0,0,3.1465,3.1464,0,0,0,0,0,0,0,0,3.1599,3.1593,3.155,3.155,3.155,3.1522,3.1516,3.1471,3.1527,3.1536,3.1532,3.1534,3.1493,3.1489,3.1477,3.1413,3.141,3.1465,3.1463,3.1461,3.146,0,0,0,0,0,0,0,3.1602,3.1595,3.1526,3.1549,3.1549,3.1554,3.155,3.1508,3.1504,3.1535,3.1537,3.1532,3.1494,3.148,3.1476,3.141,3.1465,3.1462,3.1459,3.1458,3.1292,3.129,0,0,0,0,0,0,3.1605,3.1597,3.1527,3.1524,3.158,3.1551,3.1546,3.1529,3.1505,3.1503,3.1531,3.1534,3.1486,3.148,3.1474,3.14,3.1461,3.1457,3.1455,3.1294,3.1292,3.129,0,0,0,0,0,0,3.1607,3.1598,3.1529,3.1561,3.1553,3.1547,3.1527,3.1527,3.1514,3.1501,3.15,3.1518,3.1487,3.1479,3.143,3.1399,3.1456,3.1452,3.1297,3.1294,3.1291,3.1251,0,0,0,0,0,0,3.161,3.1599,3.1577,3.1561,3.1551,3.1487,3.1525,3.1525,3.1508,3.1511,3.1489,3.1487,3.1488,3.1435,3.1426,3.1395,3.1449,3.13,3.1295,3.1292,3.1255,3.1247,3.124,0,0,0,0,0,3.1613,3.1566,3.1576,3.1567,3.1524,3.1485,3.1479,3.1483,3.1505,3.1482,3.1474,3.1488,3.1404,3.143,3.142,3.1387,3.1302,3.1297,3.1292,3.1259,3.1249,3.124,0,0,0,0,0,0,3.1576,3.1564,3.1574,3.1521,3.1504,3.149,3.1461,3.1472,3.1447,3.1451,3.1455,3.1449,3.1398,3.1387,3.1417,3.1325,3.1356,3.1349,3.1334,3.1325,3.1317,3.132,3.1446,0,0,0,0,0,3.1562,3.1534,3.1524,3.1478,3.1469,3.1466,3.145,3.1454,3.1436,3.1428,3.1417,3.1396,3.1365,3.1344,3.1315,3.1254,3.1249,3.1226,3.1219,3.1213,3.1206,3.1173,3.1162,3.1274,3.1274,3.1274,0,0,3.1531,3.1522,3.1503,3.147,3.1457,3.1426,3.146,3.1425,3.1402,3.1422,3.1375,3.1366,3.1343,3.1288,3.1263,3.1277,3.1174,3.1207,3.1202,3.1198,3.1167,3.1156,3.1147,3.1271,3.1271,3.1272,0,0,3.1461,3.1451,3.1412,3.1399,3.1381,3.1379,3.137,3.1354,3.1349,3.1303,3.1318,3.1289,3.1235,3.1219,3.1203,3.1127,3.1138,3.1117,3.1077,3.1045,3.1036,3.1028,3.1,3.099,3.1111,3.1111,3.1111,0,3.1425,3.1381,3.1389,3.1354,3.1339,3.1359,3.1318,3.1304,3.1276,3.1264,3.1281,3.1215,3.1201,3.1142,3.1124,3.1111,3.1099,3.1119,3.1037,3.1029,3.1022,3.0995,3.0985,3.1109,3.1109,3.1109,3.1109,0,3.1338,3.1307,3.1277,3.1252,3.1233,3.1195,3.1196,3.1175,3.1182,3.1178,3.113,3.1114,3.1082,3.1069,3.1074,3.101,3.102,3.1037,3.1067,3.1009,3.0984,3.0974,3.1105,3.1106,3.1107,3.1107,0,0,3.1241,3.1223,3.1212,3.1201,3.1182,3.1157,3.1119,3.1091,3.1073,3.1053,3.102,3.0975,3.0991,3.0974,3.0977,3.0949,3.0889,3.0969,3.0969,3.0954,3.0816,3.0803,3.0791,3.0897,3.0895,3.0893,3.0818,0,3.1169,3.1106,3.1113,3.1052,3.1023,3.1042,3.1009,3.0993,3.0988,3.0961,3.0955,3.0924,3.0948,3.0937,3.091,3.0902,3.0861,3.0907,3.0864,3.0863,3.0869,3.0778,3.0764,3.0694,3.0808,3.0807,3.0806,0,3.1076,3.1056,3.0993,3.0979,3.0967,3.0938,3.0912,3.0887,3.0868,3.0867,3.0848,3.0857,3.0817,3.0849,3.0793,3.0825,3.0808,3.0801,3.0798,3.0793,3.083,3.077,3.0671,3.066,3.079,3.0792,3.0793,0,3.1011,3.0968,3.0925,3.0915,3.0898,3.0877,3.0868,3.0852,3.0835,3.0811,3.08,3.0771,3.0755,3.0732,3.0732,3.0756,3.0675,3.0707,3.0671,3.0671,3.0652,3.0653,3.0548,3.0642,3.0643,3.0643,3.0643,0,3.093,3.089,3.0896,3.0869,3.0824,3.0832,3.0787,3.0781,3.0767,3.0737,3.0751,3.0723,3.0725,3.0696,3.0695,3.0649,3.0641,3.0638,3.0638,3.0636,3.0636,3.0624,3.0628,3.064,3.0641,3.0641,3.0642,0,3.0849,3.0852,3.0806,3.0794,3.0791,3.0758,3.0748,3.0721,3.0719,3.0682,3.0673,3.0668,3.0635,3.0633,3.0593,3.0593,3.0536,3.0542,3.0543,3.0544,3.0507,3.051,3.039,3.0374,3.0479,3.0478,3.0477,0,3.0797,3.0767,3.0753,3.0736,3.0727,3.0699,3.0682,3.0688,3.0669,3.0646,3.0622,3.0591,3.0566,3.0511,3.0502,3.0472,3.0477,3.0437,3.0472,3.0471,3.0475,3.0476,3.0473,3.0429,3.0428,3.0427,3.0426,0,3.0702,3.0705,3.0682,3.0658,3.0638,3.0619,3.0601,3.0585,3.0589,3.0567,3.0534,3.0515,3.0476,3.0444,3.0415,3.0404,3.0415,3.0416,3.0405,3.0403,3.0404,3.0402,3.0523,3.0418,3.0419,3.0419,3.042,3.042,3.0634,3.0608,3.0595,3.0568,3.0556,3.0539,3.0514,3.051,3.0484,3.0454,3.0459,3.0422,3.0404,3.0366,3.0353,3.0323,3.0336,3.0322,3.0318,3.0314,3.031,3.041,3.0318,3.0318,3.0318,3.0318,3.0318,0,3.054,3.0533,3.0508,3.0484,3.0462,3.0478,3.0459,3.0439,3.0408,3.0391,3.0367,3.0329,3.0298,3.0288,3.0258,3.0235,3.024,3.0227,3.0228,3.0225,3.03,3.0311,3.0224,3.0224,3.0224,3.0224,3.0224,3.0224,3.0488,3.0446,3.0448,3.0399,3.0392,3.0358,3.0346,3.033,3.0317,3.0275,3.0251,3.0245,3.0231,3.0199,3.0171,3.0169,3.0156,3.0141,3.0141,3.021,3.022,3.0229,3.024,3.0139,3.0139,3.0069,3.0068,3.0068]}]]